Airfield :
LOGIN :

Register | Disclaimer

   EN    FR    IT 

 










Legend :    VFR   Marginal VFR   IFR   Intensive IFR   Very Intensive IFR
Visi :
Ceiling :
>= 8 km
>= 3000ft
5 to 8 km
1000 to 3000 ft
1500m to 5 km
500 to 1000 ft
800 to 1500m
200 to 500 ft
< 800m
< 200 ft
Symbols :   Thunderstorms  Fog  Heavy snow  Heavy precipitations  Wind > 20 kt
SIGMETs :     Misc.  Thunderstorms  Icing  Turbulence  Mountain Waves  Volcanic Ashes







- Airport Elevation : 2044 ft


ETSA - Landsberg-Lech AB

CURRENT METAR :
  • 281620Z 23009KT 9999 FEW030 19/12 Q1018 BLU+

EXPIRED METARs :
  • 281520Z 22009KT 9999 FEW030 SCT220 19/12 Q1018 BLU+
  • 281420Z 22011KT 9999 FEW020 SCT220 18/12 Q1018 BLU+

TAF COR TAF ETSA
Valid from the 28 at 08:00 until the 28 at 17:00 UTC


280731Z 2808/2817 27010KT 9999 NSW FEW020 SCT060 BKN100
TEMPO 2808/2810 27015KT 7000 -RA SCT012 BKN020 BY ETGL
No reported NOTAMs for that airfield.



MET'MAP, your aeronautical weather chart ! - Copyright ORBIFLY December 2007 - Disclaimer

ORBIFLY MET'MAP TEAM :

Programming & Development : Alexandra Zaïnal
Concept & Development : Baudouin d'Aumeries
Co-Development & Prog : Marc-Olivier Méhu
Technical & hardware support : Manuel Goepfert

Contact : metmap@orbifly.com




SOURCES & CREDITS :

   NOAA